Find Starlink 33572

NORAD ID: 62767 Int'l Des: 2025-015 Owner: SPXS Country: US Constellation: starlink operational
LEOCIRCULAR

当前视图

正在加载3D地球...

关于 Starlink 33572

正在加载描述...

即将过境

Passes for default location (London). Set your location on the main map for personalized predictions.

高度历史

Loading altitude history...

两行轨道根数

1 62767U 25015K 26150.39005214 .00036674 00000-0 10912-2 0 9990
2 62767 53.1599 302.6980 0000746 133.7068 226.3997 15.34401600 76932
Epoch: May 30, 2026 • Age: 13 hours

当前状态

高度 463.0 km
速度 7.64 km/s
星下点 13.25°N, 92.85°E
发射日期 Jan 21, 2025
运行时间 1.3 years
类型 internet

技术详情

分类 Payload
质量 575.00 kg
干质量 530.00 kg
总质量 575.00 kg
长度 0.30 m
直径 4.10 m
跨度 29.00 m
形状 Box + pan
制造商 SPXS
平台类型 Starlink V2MO
阶段状态 In Orbit
所有者/国家 SPXS/US

Most Searched